Location: Lafig�re
(44.4503°N, 4.0357°E)
Time: 10:31:25
(UTC+00:00)

Tiros 1 - Pass Details

Date: 26 January 2021
Orbit: 630 x 664 km, 48.4° (Epoch: 07 March)

Event Time Altitude Azimuth Distance (km) Brightness Sun altitude
Rises 18:44:50 0° 267° (W) 2,928 12.1 -21.3°
Reaches altitude 10° 18:47:12 10° 272° (W) 2,016 10.8 -21.8°
Maximum altitude 18:51:45 56° 351° (N) 754 7.4 -22.6°
Enters shadow 18:52:20 51° 22° (NNE) 791 7.3 -22.7°
